STARLINK-3791, 52269

Orbit data source: Space-Track

STARLINK-3791, 52269 is a payload satellite owned by SpaceX/Seattle (US) in LEO that was launched on Thu, 21 Apr 2022 UTC via an FALCON 9 launch vehicle from the Air Force Eastern Test Range (AFETR). Payload-class satellites include a variety of spacecraft equipped with specific instruments for various scientific and technological missions. These include communications satellites like Starlink; space stations such as the ISS; scientific satellites like the Hubble; Earth observation satellites from companies like Planet Labs, Umbra, and HawkEye 360; GPS; miniature CubeSats for education and research; and military/defense satellites.

Loading next visibility...
Identifier
52269, 2022-041J
Orbit
LEO
Country
Flag of USUS
Related business
Manufacturer
SpaceX/Seattle
Mission
Operational Commercial Communications
Bus & Motor
STARLINK, Unknown motor
Mass
297 kg wet, ~275 kg dry
Launch date (UTC)
2022-04-21 (4 years ago)
Launch vehicle
FALCON 9
Launch site
Air Force Eastern Test Range (AFETR)
Object type
Payload
Rocket body
Debris
Shape & HBR
Box + 1 Pan, 10.1 m
Radar Cross Section
11.087 m², Large (>1 m²)

Expand to show TLE details & history
Last TLE update: 14 hours ago

TLE from 14 hours ago
0 STARLINK-3791
1 52269U 22041J   26129.89935091  .00000211  00000-0  31336-4 0  9991
2 52269  53.2169 194.3421 0001110  86.2335 273.8784 15.08839149223606
Epoch: 2026-05-09T21:35Z
TLE epoch observation values (Epoch: 2026-05-09T21:35:03.918Z)
Latitude
-0.00003°
Longitude
2.86559°
Altitude
540.592 km
Speed
7.593 km/s
True Right ascension
12h 57m 22s
True Declination
0° 00' 00"
Sunlit
Object was in full shadow at epoch
Visualization orbit readout
Latitude
Unknown
Longitude
Unknown
Altitude
Unknown
Speed
Unknown
Apparent Right ascension
Unknown
Apparent Declination
Unknown
Sunlit
N/A
Visualization observer readout
Local Sidereal Time
19:47:36
Azimuth
Unknown
Elevation
Unknown
Doppler factor
Unknown
Orbital elements
Apogee altitude
540.759 km
Perigee altitude
539.223 km
Semi-major axis
6,918.128 km
Eccentricity
0.00011
Inclination
53.2169°
RAAN
194.3421°
Arg. of periapsis
86.2335°
True anomaly
273.86571°
Mean anomaly
273.8784°
Eccentric anomaly
273.87205°
Mean motion
3.7719 °/min
Orbital period
95.44 mins
BSTAR
0.000031336
Loading maneuver chart data...
Computing Atmospheric mass density...
Loading historical data...
Loading historical data...
Loading historical data...
Loading historical data...
Loading historical data...
Loading historical data...
Loading historical data...

Documentation

Showing up to 5 results
|